EW3263 Weather Reports


Display with metric or nautical units.
time (UTC)temp
F
wind
direction
speed
MPH
gust
MPH
rain 1hr
in
rain 24hr
in
rain mn
in
humidity
%
barometer
mb
20260506221530 71 0.0 0.0 0.00 0.00 0.00 53 1022.6
20260506220027 72 0.0 0.0 0.00 0.00 0.00 54 1022.7
20260506214536 73 0.0 0.0 0.00 0.00 0.00 50 1022.7
20260506213020 73 0.0 0.0 0.00 0.00 0.00 49 1022.9
20260506211514 73 0.0 0.0 0.00 0.00 0.00 48 1023.0
20260506210009 73 0.0 0.0 0.00 0.00 0.00 46 1023.1
20260506204505 72 0.0 0.0 0.00 0.00 0.00 47 1023.3
20260506203001 72 0.0 0.0 0.00 0.00 0.00 46 1023.4
20260506201557 71 0.0 0.0 0.00 0.00 0.00 47 1023.6
20260506200052 71 0.0 0.0 0.00 0.00 0.00 49 1023.8
20260506194548 70 0.0 0.0 0.00 0.00 0.00 50 1024.0
20260506193043 69 0.0 0.0 0.00 0.00 0.00 56 1024.1
20260506191541 68 0.0 0.0 0.00 0.00 0.00 54 1024.3
20260506190035 67 0.0 0.0 0.00 0.00 0.00 55 1024.4
20260506184544 66 0.0 0.0 0.00 0.00 0.00 56 1024.6
20260506183036 65 0.0 0.0 0.00 0.00 0.00 59 1024.8
20260506181526 65 0.0 0.0 0.00 0.00 0.00 58 1024.8
20260506180017 63 0.0 0.0 0.00 0.00 0.00 61 1024.9
20260506174512 63 0.0 0.0 0.00 0.01 0.00 62 1025.1
20260506173007 62 0.0 0.0 0.00 0.01 0.00 61 1025.2
20260506171507 61 0.0 0.0 0.00 0.01 0.00 64 1025.3
20260506170059 60 0.0 0.0 0.00 0.01 0.00 66 1025.2
20260506164606 59 0.0 0.0 0.00 0.01 0.00 64 1025.2
20260506163052 58 0.0 0.0 0.00 0.01 0.00 65 1025.2
20260506161548 58 0.0 0.0 0.00 0.01 0.00 67 1025.3
20260506160051 57 0.0 0.0 0.00 0.01 0.00 70 1025.2
20260506154537 56 0.0 0.0 0.00 0.08 0.00 71 1025.3
20260506153041 56 0.0 0.0 0.00 0.08 0.00 70 1025.4
20260506151529 55 0.0 0.0 0.00 0.08 0.00 73 1025.4
20260506150024 55 0.0 0.0 0.00 0.08 0.00 74 1025.4
20260506144521 53 0.0 0.0 0.00 0.08 0.00 78 1025.4
20260506143016 51 0.0 0.0 0.00 0.08 0.00 80 1025.3
20260506141513 48 0.0 0.0 0.00 0.08 0.00 86 1025.3
20260506140006 44 0.0 0.0 0.00 0.08 0.00 91 1025.2
20260506134502 43 0.0 0.0 0.00 0.12 0.00 91 1025.1
20260506133100 43 0.0 0.0 0.00 0.12 0.00 91 1024.9
20260506131555 43 0.0 0.0 0.00 0.12 0.00 90 1024.8
20260506130049 43 0.0 0.0 0.00 0.12 0.00 90 1024.7
20260506124545 43 0.0 0.0 0.00 0.17 0.00 90 1024.5
20260506123041 43 0.0 0.0 0.00 0.17 0.00 90 1024.3
20260506121537 43 0.0 0.0 0.00 0.17 0.00 90 1024.3
20260506120038 43 0.0 0.0 0.00 0.17 0.00 90 1024.3
20260506114529 43 0.0 0.0 0.00 0.18 0.00 90 1024.2
20260506113035 44 0.0 0.0 0.00 0.18 0.00 90 1024.3
20260506111519 44 0.0 0.0 0.00 0.18 0.00 91 1024.1
20260506110014 44 0.0 0.0 0.00 0.18 0.00 89 1024.1
20260506104510 44 0.0 0.0 0.00 0.22 0.00 90 1024.1
20260506103009 44 0.0 0.0 0.00 0.22 0.00 90 1023.9
20260506101501 45 0.0 0.0 0.00 0.22 0.00 90 1024.0
20260506100058 45 0.0 0.0 0.00 0.22 0.00 90 1023.9
20260506094553 45 0.0 0.0 0.00 0.28 0.00 89 1023.9
20260506093049 45 0.0 0.0 0.00 0.28 0.00 89 1023.8
20260506091552 46 0.0 0.0 0.00 0.28 0.00 90 1024.0
20260506090040 46 0.0 0.0 0.00 0.28 0.00 89 1024.1
20260506084542 46 0.0 0.0 0.00 0.34 0.00 89 1024.1
20260506083031 46 0.0 0.0 0.00 0.34 0.00 89 1024.5
20260506081527 47 0.0 0.0 0.00 0.34 0.00 89 1024.6
20260506073014 48 0.0 0.0 0.00 0.34 0.00 88 1024.7
20260506071511 48 0.0 0.0 0.00 0.34 0.00 88 1024.8
20260506061553 49 0.0 0.0 0.00 0.34 0.34 86 1024.4
20260506044527 50 0.0 0.0 0.00 0.34 0.34 83 1024.1
20260506043022 50 0.0 0.0 0.00 0.34 0.34 83 1024.0
20260506041518 51 0.0 0.0 0.00 0.34 0.34 82 1023.8
20260506040021 51 0.0 0.0 0.00 0.34 0.34 81 1023.5
20260506034518 51 0.0 0.0 0.00 0.34 0.34 79 1023.3
20260506033005 52 0.0 0.0 0.00 0.34 0.34 77 1023.0
20260506031608 53 0.0 0.0 0.00 0.34 0.34 76 1022.8
20260506030055 53 0.0 0.0 0.00 0.34 0.34 73 1022.6
20260506024607 54 0.0 0.0 0.00 0.34 0.34 71 1022.3
20260506023047 55 0.0 0.0 0.00 0.34 0.34 70 1022.1
20260506021544 56 0.0 0.0 0.00 0.34 0.34 68 1021.8
20260506020038 56 0.0 0.0 0.00 0.34 0.34 65 1021.7
20260506014534 56 0.0 0.0 0.00 0.34 0.34 65 1021.6
20260506013039 57 0.0 0.0 0.00 0.34 0.34 64 1021.6
20260506011526 58 0.0 0.0 0.00 0.34 0.34 61 1021.4
20260506010024 59 0.0 0.0 0.00 0.34 0.34 59 1021.3
20260506004516 58 0.0 0.0 0.00 0.34 0.34 62 1021.3
20260506003012 59 0.0 0.0 0.00 0.34 0.34 61 1021.1
20260506001508 58 0.0 0.0 0.00 0.34 0.34 63 1021.0
20260506000003 59 0.0 0.0 0.00 0.34 0.34 64 1021.1
20260505234558 59 0.0 0.0 0.00 0.34 0.34 59 1021.2
20260505233054 58 0.0 0.0 0.00 0.34 0.34 61 1021.1
20260505231550 60 0.0 0.0 0.00 0.34 0.34 60 1021.1
20260505230056 59 0.0 0.0 0.00 0.34 0.34 59 1021.1
20260505224541 59 0.0 0.0 0.00 0.34 0.34 60 1021.2
20260505223047 59 0.0 0.0 0.00 0.34 0.34 63 1021.3